When you browse on this site, cookies collect data to enhance your experience and personalize the content and advertising you see.
Visit our Privacy Policy to learn more. By continuing to use the site, you agree to this use of cookies and data.
  • En España
  • Lista de países
  • Para 7 días
  • Temperatura del agua
  • El tiempo en el mapa
  • Informadores
  • user-avatar
    Iniciar sesión

    Tiempo cada hora Mauritius

    Hoy, 24 Agosto, Sábado

    Tiempo Temperatura Precipitaciones Viento Presión Humedad
    00:00 +20°C° 0.2 mm 3 mps 727 mmHg 83%
    01:00 +20°C° 0.2 mm 4 mps 727 mmHg 84%
    02:00 +19°C° 0 mm 3 mps 727 mmHg 83%
    03:00 +19°C° 0 mm 3 mps 727 mmHg 82%
    04:00 +19°C° 0 mm 3 mps 726 mmHg 80%
    05:00 +19°C° 0 mm 3 mps 727 mmHg 81%
    06:00 +19°C° 0 mm 3 mps 727 mmHg 82%
    07:00 +19°C° 0 mm 3 mps 727 mmHg 82%
    08:00 +20°C° 0 mm 3 mps 727 mmHg 77%
    09:00 +21°C° 0 mm 3 mps 727 mmHg 71%
    10:00 +24°C° 0 mm 3 mps 728 mmHg 65%
    11:00 +24°C° 0 mm 3 mps 727 mmHg 63%
    12:00 +25°C° 0 mm 3 mps 727 mmHg 62%
    13:00 +25°C° 0 mm 3 mps 727 mmHg 60%
    14:00 +25°C° 0.2 mm 3 mps 727 mmHg 63%
    15:00 +24°C° 0.2 mm 3 mps 726 mmHg 66%
    16:00 +24°C° 0.2 mm 3 mps 726 mmHg 69%
    17:00 +22°C° 0.5 mm 4 mps 726 mmHg 72%
    18:00 +21°C° 0.5 mm 4 mps 726 mmHg 76%
    19:00 +21°C° 0.5 mm 5 mps 727 mmHg 79%
    20:00 +21°C° 0.2 mm 5 mps 727 mmHg 79%
    21:00 +20°C° 0.2 mm 4 mps 727 mmHg 79%
    22:00 +20°C° 0.2 mm 4 mps 728 mmHg 79%
    23:00 +20°C° 0.1 mm 5 mps 727 mmHg 80%

    Mañana, 25 Agosto, Domingo

    Tiempo Temperatura Precipitaciones Viento Presión Humedad
    00:00 +20°C° 0.1 mm 5 mps 727 mmHg 81%
    01:00 +20°C° 0.1 mm 5 mps 727 mmHg 82%
    02:00 +20°C° 0 mm 5 mps 727 mmHg 81%
    03:00 +20°C° 0 mm 5 mps 727 mmHg 80%
    04:00 +19°C° 0 mm 6 mps 727 mmHg 80%
    05:00 +19°C° 0 mm 5 mps 727 mmHg 80%
    06:00 +19°C° 0 mm 5 mps 727 mmHg 79%
    07:00 +19°C° 0 mm 5 mps 727 mmHg 79%
    08:00 +20°C° 0 mm 5 mps 728 mmHg 76%
    09:00 +21°C° 0 mm 5 mps 728 mmHg 72%
    10:00 +22°C° 0 mm 6 mps 729 mmHg 68%
    11:00 +22°C° 0 mm 5 mps 728 mmHg 67%
    12:00 +22°C° 0 mm 5 mps 728 mmHg 65%
    13:00 +23°C° 0 mm 5 mps 728 mmHg 64%
    14:00 +23°C° 0 mm 6 mps 728 mmHg 65%
    15:00 +22°C° 0 mm 6 mps 727 mmHg 66%
    16:00 +22°C° 0 mm 6 mps 727 mmHg 67%
    17:00 +21°C° 0 mm 6 mps 727 mmHg 71%
    18:00 +21°C° 0 mm 6 mps 727 mmHg 74%
    19:00 +20°C° 0 mm 6 mps 727 mmHg 77%
    20:00 +20°C° 0.1 mm 5 mps 728 mmHg 78%
    21:00 +20°C° 0.1 mm 5 mps 728 mmHg 78%
    22:00 +20°C° 0.1 mm 5 mps 728 mmHg 79%
    23:00 +20°C° 0.2 mm 5 mps 728 mmHg 80%

    Pasado mañana, 26 Agosto, Lunes

    Tiempo Temperatura Precipitaciones Viento Presión Humedad
    00:00 +20°C° 0.2 mm 5 mps 728 mmHg 82%
    01:00 +20°C° 0.2 mm 6 mps 728 mmHg 83%
    02:00 +20°C° 0.3 mm 6 mps 728 mmHg 82%
    03:00 +20°C° 0.3 mm 6 mps 728 mmHg 82%
    04:00 +20°C° 0.3 mm 7 mps 727 mmHg 81%
    05:00 +18°C° 0.1 mm 7 mps 728 mmHg 81%
    06:00 +18°C° 0.1 mm 7 mps 728 mmHg 81%
    07:00 +18°C° 0.1 mm 7 mps 729 mmHg 81%
    08:00 +20°C° 0 mm 7 mps 729 mmHg 77%
    09:00 +21°C° 0 mm 7 mps 729 mmHg 72%
    10:00 +21°C° 0 mm 6 mps 729 mmHg 67%
    11:00 +22°C° 0 mm 6 mps 729 mmHg 66%
    12:00 +22°C° 0 mm 6 mps 728 mmHg 64%
    13:00 +22°C° 0 mm 6 mps 728 mmHg 62%
    14:00 +22°C° 0 mm 6 mps 728 mmHg 63%
    15:00 +21°C° 0 mm 6 mps 727 mmHg 64%
    16:00 +21°C° 0 mm 6 mps 727 mmHg 65%
    17:00 +21°C° 0 mm 6 mps 727 mmHg 68%
    18:00 +20°C° 0 mm 6 mps 728 mmHg 72%
    19:00 +19°C° 0 mm 6 mps 728 mmHg 76%
    20:00 +19°C° 0 mm 5 mps 728 mmHg 77%
    21:00 +19°C° 0 mm 5 mps 728 mmHg 78%
    22:00 +19°C° 0 mm 5 mps 728 mmHg 79%
    23:00 +19°C° 0 mm 5 mps 728 mmHg 79%

    27 Agosto, Martes

    Tiempo Temperatura Precipitaciones Viento Presión Humedad
    00:00 +19°C° 0 mm 5 mps 728 mmHg 80%
    01:00 +19°C° 0 mm 5 mps 728 mmHg 80%
    02:00 +17°C° 0 mm 5 mps 728 mmHg 80%
    03:00 +17°C° 0 mm 5 mps 727 mmHg 79%
    04:00 +17°C° 0 mm 5 mps 727 mmHg 79%
    05:00 +17°C° 0 mm 5 mps 727 mmHg 77%
    06:00 +17°C° 0 mm 5 mps 728 mmHg 76%
    07:00 +17°C° 0 mm 5 mps 728 mmHg 74%
    08:00 +19°C° 0 mm 6 mps 728 mmHg 71%
    09:00 +20°C° 0 mm 6 mps 729 mmHg 68%
    10:00 +21°C° 0 mm 7 mps 729 mmHg 64%
    11:00 +21°C° 0 mm 6 mps 728 mmHg 63%
    12:00 +21°C° 0 mm 6 mps 728 mmHg 62%
    13:00 +21°C° 0 mm 6 mps 728 mmHg 61%
    14:00 +21°C° 0 mm 6 mps 727 mmHg 63%
    15:00 +21°C° 0 mm 6 mps 727 mmHg 66%
    16:00 +21°C° 0 mm 6 mps 727 mmHg 68%
    17:00 +20°C° 0 mm 6 mps 727 mmHg 69%
    18:00 +20°C° 0 mm 6 mps 727 mmHg 70%
    19:00 +20°C° 0 mm 6 mps 728 mmHg 71%
    20:00 +19°C° 0 mm 6 mps 728 mmHg 71%
    21:00 +19°C° 0 mm 6 mps 728 mmHg 72%
    22:00 +19°C° 0 mm 6 mps 728 mmHg 72%
    23:00 +19°C° 0 mm 6 mps 728 mmHg 73%

    28 Agosto, Miércoles

    Tiempo Temperatura Precipitaciones Viento Presión Humedad
    00:00 +19°C° 0 mm 6 mps 728 mmHg 74%
    01:00 +17°C° 0 mm 6 mps 728 mmHg 75%
    02:00 +17°C° 0 mm 6 mps 727 mmHg 75%
    03:00 +17°C° 0 mm 5 mps 727 mmHg 75%
    04:00 +17°C° 0 mm 5 mps 727 mmHg 75%
    05:00 +17°C° 0.1 mm 5 mps 727 mmHg 76%
    06:00 +19°C° 0.1 mm 5 mps 728 mmHg 76%
    07:00 +19°C° 0.1 mm 6 mps 728 mmHg 77%
    08:00 +20°C° 0 mm 6 mps 728 mmHg 73%
    09:00 +20°C° 0 mm 6 mps 728 mmHg 69%
    10:00 +21°C° 0 mm 6 mps 729 mmHg 65%
    11:00 +21°C° 0 mm 6 mps 728 mmHg 63%
    12:00 +22°C° 0 mm 6 mps 728 mmHg 62%
    13:00 +22°C° 0 mm 6 mps 727 mmHg 61%
    14:00 +22°C° 0 mm 6 mps 727 mmHg 62%
    15:00 +21°C° 0 mm 6 mps 727 mmHg 64%
    16:00 +21°C° 0 mm 6 mps 727 mmHg 66%
    17:00 +20°C° 0 mm 6 mps 727 mmHg 68%
    18:00 +20°C° 0 mm 6 mps 727 mmHg 70%
    19:00 +19°C° 0 mm 6 mps 727 mmHg 72%
    20:00 +19°C° 0 mm 6 mps 727 mmHg 73%
    21:00 +19°C° 0 mm 6 mps 728 mmHg 74%
    22:00 +19°C° 0 mm 5 mps 728 mmHg 75%
    23:00 +19°C° 0 mm 5 mps 728 mmHg 73%

    29 Agosto, Jueves

    Tiempo Temperatura Precipitaciones Viento Presión Humedad
    00:00 +19°C° 0 mm 5 mps 728 mmHg 72%
    01:00 +19°C° 0 mm 5 mps 727 mmHg 70%
    02:00 +17°C° 0 mm 5 mps 727 mmHg 71%
    03:00 +17°C° 0 mm 5 mps 727 mmHg 71%
    04:00 +17°C° 0 mm 5 mps 727 mmHg 72%
    05:00 +17°C° 0 mm 5 mps 727 mmHg 71%
    06:00 +18°C° 0 mm 4 mps 727 mmHg 71%
    07:00 +19°C° 0 mm 4 mps 727 mmHg 71%
    08:00 +19°C° 0 mm 5 mps 728 mmHg 68%
    09:00 +20°C° 0 mm 5 mps 728 mmHg 65%
    10:00 +21°C° 0 mm 5 mps 728 mmHg 62%
    11:00 +21°C° 0 mm 5 mps 727 mmHg 63%
    12:00 +21°C° 0 mm 5 mps 727 mmHg 63%
    13:00 +21°C° 0 mm 5 mps 726 mmHg 63%
    14:00 +21°C° 0 mm 5 mps 726 mmHg 63%
    15:00 +21°C° 0 mm 5 mps 726 mmHg 62%
    16:00 +21°C° 0 mm 5 mps 726 mmHg 61%
    17:00 +21°C° 0 mm 5 mps 726 mmHg 63%
    18:00 +20°C° 0 mm 4 mps 726 mmHg 66%
    19:00 +20°C° 0 mm 4 mps 726 mmHg 68%
    20:00 +19°C° 0 mm 4 mps 726 mmHg 69%
    21:00 +19°C° 0 mm 4 mps 727 mmHg 69%
    22:00 +19°C° 0 mm 4 mps 727 mmHg 70%
    23:00 +19°C° 0 mm 4 mps 727 mmHg 70%
    Mostrar más